Weather History for Arbor Vitae, WI

Change the Weather History Date:

Saturday, August 10, 2013

  Actual Average Record
Temperature  
Mean Temperature 60 °F -  
Max Temperature 72 °F 75 °F 94 °F (1944)
Min Temperature 49 °F 51 °F 38 °F (1945)
Degree Days  
Heating Degree Days 4    
Growing Degree Days 10 (Base 50)    
Moisture  
Dew Point 52 °F    
Average Humidity 76    
Maximum Humidity 94    
Minimum Humidity 49    
Precipitation  
Precipitation 0.00 in - - ()
Sea Level Pressure  
Sea Level Pressure 30.14 in    
Wind  
Wind Speed 1 mph (WNW)    
Max Wind Speed 7 mph    
Max Gust Speed -    
Visibility 10 miles    
Events      
Averages and records for this station are not official NWS values.
T = Trace of Precipitation, MM = Missing Value Source: NWS Daily Summary

Daily Weather History Graph

Daily Weather History Graph

Search for Another Location

Airport:

Trip Planner

Search our weather history database for the weather conditions in past years. The results will help you decide how hot, cold, wet, or windy it might be!

Date:

Astronomy

Aug. 10, 2013 Rise Set
Actual Time 5:52 AM CDT 8:14 PM CDT
Civil Twilight 5:19 AM CDT 8:47 PM CDT
Nautical Twilight 4:38 AM CDT 9:29 PM CDT
Astronomical Twilight 3:51 AM CDT 10:15 PM CDT
Moon 9:55 AM CDT (8/10) 9:39 PM CDT (8/10)
Length of Visible Light 15h 28m
Length of Day
14h 22m
Waxing Crescent, 14% of the Moon is Illuminated
Aug 10
Waxing Crescent
Aug 14
First Quarter
Aug 20
Full
Aug 28
Last Quarter
Sep 5
New

Hourly Weather History & Observations

Time (CDT) Temp. Dew Point Humidity Pressure Visibility Wind Dir Wind Speed Gust Speed Precip Events Conditions
12:15 AM 54.5 °F 50.5 °F 86% 30.11 in 10.0 mi Calm Calm - N/A   Mostly Cloudy
12:35 AM 56.8 °F 52.9 °F 87% 30.11 in 10.0 mi Calm Calm - N/A   Overcast
12:55 AM 54.5 °F 51.1 °F 88% 30.11 in 10.0 mi Calm Calm - N/A   Overcast
1:15 AM 56.8 °F 52.9 °F 87% 30.11 in 10.0 mi Calm Calm - N/A   Overcast
1:35 AM 53.4 °F 50.5 °F 90% 30.12 in 10.0 mi Calm Calm - N/A   Scattered Clouds
1:55 AM 51.8 °F 49.3 °F 91% 30.12 in 10.0 mi Calm Calm - N/A   Clear
2:15 AM 51.8 °F 49.3 °F 91% 30.12 in 5.0 mi Calm Calm - N/A   Clear
2:35 AM 51.8 °F 50.0 °F 94% 30.12 in 3.0 mi Calm Calm - N/A   Scattered Clouds
2:55 AM 51.8 °F 50.0 °F 94% 30.13 in 5.0 mi Calm Calm - N/A   Scattered Clouds
3:15 AM 51.8 °F 48.9 °F 90% 30.13 in 10.0 mi Calm Calm - N/A   Clear
3:35 AM 51.8 °F 49.3 °F 91% 30.13 in 10.0 mi Calm Calm - N/A   Clear
3:55 AM 50.0 °F 47.8 °F 92% 30.13 in 10.0 mi Calm Calm - N/A   Clear
4:15 AM 51.8 °F 49.3 °F 91% 30.14 in 10.0 mi Calm Calm - N/A   Clear
4:35 AM 51.8 °F 49.3 °F 91% 30.14 in 10.0 mi Calm Calm - N/A   Clear
4:55 AM 49.6 °F 47.3 °F 92% 30.15 in 10.0 mi Calm Calm - N/A   Mostly Cloudy
5:15 AM 51.8 °F 49.3 °F 91% 30.15 in 10.0 mi Calm Calm - N/A   Overcast
5:35 AM 51.8 °F 49.1 °F 90% 30.15 in 10.0 mi Calm Calm - N/A   Overcast
5:55 AM 51.8 °F 49.3 °F 91% 30.15 in 10.0 mi Calm Calm - N/A   Overcast
6:15 AM 51.8 °F 49.5 °F 92% 30.15 in 10.0 mi Calm Calm - N/A   Overcast
6:35 AM 51.8 °F 49.5 °F 92% 30.16 in 10.0 mi Calm Calm - N/A   Overcast
6:55 AM 54.5 °F 51.6 °F 90% 30.16 in 10.0 mi Calm Calm - N/A   Overcast
7:15 AM 56.8 °F 54.5 °F 92% 30.16 in 10.0 mi Calm Calm - N/A   Overcast
7:35 AM 56.8 °F 54.5 °F 92% 30.17 in 10.0 mi Calm Calm - N/A   Overcast
7:55 AM 56.8 °F 53.8 °F 89% 30.17 in 10.0 mi Calm Calm - N/A   Overcast
8:15 AM 57.0 °F 53.2 °F 87% 30.17 in 10.0 mi Calm Calm - N/A   Overcast
8:35 AM 59.4 °F 55.4 °F 87% 30.17 in 10.0 mi Calm Calm - N/A   Overcast
8:55 AM 59.4 °F 54.7 °F 84% 30.16 in 10.0 mi Calm Calm - N/A   Overcast
9:15 AM 59.5 °F 53.8 °F 81% 30.16 in 10.0 mi Calm Calm - N/A   Overcast
9:35 AM 62.1 °F 54.3 °F 76% 30.16 in 10.0 mi NNW 3.5 mph - N/A   Overcast
9:55 AM 63.9 °F 53.8 °F 70% 30.16 in 10.0 mi WNW 5.8 mph - N/A   Mostly Cloudy
10:15 AM 64.6 °F 52.7 °F 65% 30.17 in 10.0 mi NNW 4.6 mph - N/A   Scattered Clouds
10:35 AM 65.1 °F 52.0 °F 62% 30.17 in 10.0 mi NW 5.8 mph - N/A   Mostly Cloudy
10:55 AM 65.5 °F 51.8 °F 61% 30.17 in 10.0 mi West 4.6 mph - N/A   Scattered Clouds
11:15 AM 67.1 °F 52.5 °F 59% 30.17 in 10.0 mi NW 3.5 mph - N/A   Scattered Clouds
11:35 AM 67.6 °F 52.5 °F 58% 30.17 in 10.0 mi WNW 5.8 mph - N/A   Mostly Cloudy
11:55 AM 67.1 °F 51.6 °F 57% 30.17 in 10.0 mi Calm Calm - N/A   Overcast
12:15 PM 65.5 °F 51.3 °F 60% 30.17 in 10.0 mi WNW 4.6 mph - N/A   Overcast
12:35 PM 65.7 °F 51.8 °F 61% 30.17 in 10.0 mi West 4.6 mph - N/A   Overcast
12:55 PM 67.1 °F 52.0 °F 58% 30.17 in 10.0 mi West 6.9 mph - N/A   Overcast
1:15 PM 67.1 °F 51.1 °F 56% 30.17 in 10.0 mi West 6.9 mph - N/A   Overcast
1:35 PM 67.5 °F 51.1 °F 56% 30.17 in 10.0 mi NW 5.8 mph - N/A   Overcast
1:55 PM 67.6 °F 50.9 °F 55% 30.17 in 10.0 mi WNW 3.5 mph - N/A   Overcast
2:15 PM 67.8 °F 51.3 °F 55% 30.17 in 10.0 mi NW 5.8 mph - N/A   Overcast
2:35 PM 67.1 °F 52.3 °F 59% 30.17 in 10.0 mi West 5.8 mph - N/A   Overcast
2:55 PM 67.1 °F 53.4 °F 61% 30.17 in 10.0 mi WNW 4.6 mph - N/A   Overcast
3:15 PM 67.1 °F 50.4 °F 55% 30.17 in 10.0 mi West 4.6 mph - N/A   Overcast
3:35 PM 69.4 °F 51.8 °F 53% 30.16 in 10.0 mi NW 5.8 mph - N/A   Overcast
3:55 PM 67.1 °F 52.5 °F 59% 30.15 in 10.0 mi NW 3.5 mph - N/A   Overcast
4:15 PM 69.4 °F 53.4 °F 57% 30.15 in 10.0 mi NNW 4.6 mph - N/A   Overcast
4:35 PM 70.3 °F 53.6 °F 55% 30.14 in 10.0 mi WNW 3.5 mph - N/A   Mostly Cloudy
4:55 PM 72.0 °F 51.6 °F 49% 30.14 in 10.0 mi NW 4.6 mph - N/A   Mostly Cloudy
5:15 PM 72.0 °F 51.6 °F 49% 30.14 in 10.0 mi NNW 5.8 mph - N/A   Scattered Clouds
5:35 PM 72.0 °F 53.1 °F 51% 30.13 in 10.0 mi West 6.9 mph - N/A   Clear
5:55 PM 68.9 °F 52.2 °F 55% 30.13 in 10.0 mi NNW 3.5 mph - N/A   Scattered Clouds
6:15 PM 67.1 °F 52.2 °F 59% 30.13 in 10.0 mi NW 3.5 mph - N/A   Mostly Cloudy
6:35 PM 69.8 °F 52.5 °F 54% 30.13 in 10.0 mi West 4.6 mph - N/A   Mostly Cloudy
6:55 PM 69.4 °F 52.2 °F 54% 30.13 in 10.0 mi Calm Calm - N/A   Scattered Clouds
7:15 PM 67.1 °F 51.1 °F 56% 30.13 in 10.0 mi Calm Calm - N/A   Clear
7:35 PM 67.1 °F 52.7 °F 60% 30.13 in 10.0 mi Calm Calm - N/A   Clear
7:55 PM 62.6 °F 54.0 °F 73% 30.12 in 10.0 mi Calm Calm - N/A   Clear
8:15 PM 62.1 °F 54.3 °F 76% 30.12 in 10.0 mi Calm Calm - N/A   Clear
8:35 PM 59.4 °F 54.5 °F 84% 30.12 in 10.0 mi Calm Calm - N/A   Clear
8:55 PM 59.4 °F 55.6 °F 87% 30.13 in 10.0 mi Calm Calm - N/A   Clear
9:15 PM 58.8 °F 55.2 °F 88% 30.13 in 10.0 mi Calm Calm - N/A   Scattered Clouds
9:35 PM 57.2 °F 53.4 °F 87% 30.13 in 10.0 mi Calm Calm - N/A   Scattered Clouds
9:55 PM 56.8 °F 54.0 °F 90% 30.12 in 10.0 mi Calm Calm - N/A   Clear
10:15 PM 56.8 °F 54.1 °F 91% 30.12 in 10.0 mi Calm Calm - N/A   Clear
10:35 PM 56.3 °F 54.0 °F 92% 30.13 in 10.0 mi Calm Calm - N/A   Clear
10:55 PM 56.8 °F 54.3 °F 91% 30.13 in 10.0 mi Calm Calm - N/A   Clear
11:15 PM 54.5 °F 52.0 °F 91% 30.13 in 10.0 mi Calm Calm - N/A   Clear
11:35 PM 54.5 °F 51.8 °F 91% 30.12 in 10.0 mi Calm Calm - N/A   Clear
11:55 PM 53.1 °F 50.4 °F 91% 30.12 in 10.0 mi Calm Calm - N/A   Clear